Zurück zum Katalog

STARLINK-37536

AktivKommunikationVLEO
NORAD 69508·PAYLOAD·🇺🇸 United States

Gestartet Jun 12, 2026 von Cape Canaveral Space Force Station

Loading…

Nächste Überflüge (nächste 24 Stunden)

TLE

AktuellSource: CelesTrak SupGP

Epoche: Sep 15, 2026, 03:15 UTC

1 69508C 26133A   26258.13590278 -.00039863  00000+0 -11776-2 0  2583
2 69508  53.1575 255.1218 0001297  90.3157   0.7338 15.34414177    13

Verfolge STARLINK-37536 in Echtzeit mit AllMySat

Download on the App Store